Stations météo

réclame
Mon MeteoGroup
Capo Carbonara, Italie (16564): Température de l'air & dewpoint: 18.01.2018 10:00:00 - 24.01.2018 10:00:00 (CET)Capo Carbonara, Italie (16564): Vitesse du vent: 18.01.2018 10:00:00 - 24.01.2018 10:00:00 (CET)Capo Carbonara, Italie (16564): Direction du vent: 18.01.2018 10:00:00 - 24.01.2018 10:00:00 (CET)Capo Carbonara, Italie (16564): reduced air pressure: 18.01.2018 10:00:00 - 24.01.2018 10:00:00 (CET)Capo Carbonara, Italie (16564): visibility: 18.01.2018 10:00:00 - 24.01.2018 10:00:00 (CET)
Date & Time tt [°C] td [°C] ff [km/h] ff [knt] dd ppp [hPa] vv [km]
24.01.2018 10:00:00 13,8 10,8 18 10 E 1028,9 20
24.01.2018 09:00:00 13,0 10,0 13 7 E - 10
24.01.2018 08:00:00 13,0 10,0 15 8 E - 10
24.01.2018 07:00:00 13,0 10,2 13 7 E 1027,2 18
24.01.2018 06:00:00 13,0 10,0 16 9 ENE - 10
24.01.2018 05:00:00 13,0 10,0 13 7 ENE - 10
24.01.2018 04:00:00 12,4 9,6 11 6 ENE 1026,4 16
24.01.2018 03:00:00 12,0 10,0 11 6 NE - 10
24.01.2018 02:00:00 12,0 10,0 13 7 NE - 10
24.01.2018 01:00:00 12,4 9,8 15 8 NE 1025,9 18
24.01.2018 00:00:00 12,0 10,0 15 8 NE - 10
23.01.2018 23:00:00 13,0 10,0 16 9 NE - 10
23.01.2018 22:00:00 13,0 10,4 18 10 NE 1025,1 18
23.01.2018 21:00:00 13,0 10,0 18 10 NE - 10
23.01.2018 20:00:00 13,0 11,0 9 5 WSW - 10
23.01.2018 19:00:00 13,6 11,0 11 6 WSW 1022,9 18
23.01.2018 18:00:00 15,0 12,0 18 10 ENE - 10
23.01.2018 17:00:00 18,0 15,0 15 8 ENE - 10
23.01.2018 16:00:00 18,0 13,7 9 5 E 1020,7 10
23.01.2018 15:00:00 19,0 15,0 13 7 W - 10
23.01.2018 14:00:00 18,0 14,0 22 12 W - 10
23.01.2018 13:00:00 18,0 13,9 16 9 WSW 1019,3 10
23.01.2018 12:00:00 17,0 13,0 26 14 W - 10
23.01.2018 11:00:00 15,0 12,0 37 20 W - 10
23.01.2018 10:00:00 14,0 10,9 44 24 W 1018,5 10
23.01.2018 09:00:00 14,0 11,0 46 25 WNW - 10
23.01.2018 08:00:00 13,0 11,0 46 25 W - 10
23.01.2018 07:00:00 13,0 10,5 65 35 W 1016,7 16
23.01.2018 06:00:00 14,0 12,0 61 33 W - 10
23.01.2018 05:00:00 15,0 12,0 59 32 W - 10
23.01.2018 04:00:00 15,4 12,4 59 32 W 1017,1 16
23.01.2018 03:00:00 15,0 11,0 41 22 W - 10
23.01.2018 02:00:00 15,0 11,0 48 26 W - 10
23.01.2018 01:00:00 15,0 11,2 80 43 W 1016,4 16
23.01.2018 00:00:00 15,0 12,0 98 53 W - 10
22.01.2018 23:00:00 15,0 11,0 111 60 W - 10
22.01.2018 22:00:00 15,0 11,2 81 44 W 1014,5 16
22.01.2018 21:00:00 15,0 10,0 50 27 WNW - 10
22.01.2018 20:00:00 14,0 12,0 50 27 W - 10
22.01.2018 19:00:00 14,0 11,4 59 32 W 1015,7 16
22.01.2018 18:00:00 15,0 12,0 48 26 W - 10
22.01.2018 17:00:00 16,0 13,0 52 28 W - 10
22.01.2018 16:00:00 17,0 13,3 50 27 W 1015,0 18
22.01.2018 15:00:00 16,0 12,0 48 26 W - 10
22.01.2018 14:00:00 16,0 12,0 48 26 W - 10
22.01.2018 13:00:00 15,6 12,0 81 44 W 1015,0 18
22.01.2018 12:00:00 15,0 12,0 70 38 W - 10
22.01.2018 11:00:00 15,0 12,0 68 37 W - 10
22.01.2018 10:00:00 14,0 11,0 52 28 WSW 1015,4 18
22.01.2018 09:00:00 14,0 11,0 46 25 W - 10
22.01.2018 08:00:00 14,0 11,0 42 23 W - 10
22.01.2018 07:00:00 14,6 11,6 31 17 WSW 1015,3 20
22.01.2018 06:00:00 14,0 11,0 34 18 WNW - 10
22.01.2018 05:00:00 15,0 12,0 22 12 SW - 10
22.01.2018 04:00:00 14,8 11,4 21 11 SSW 1014,8 20
22.01.2018 03:00:00 15,0 12,0 13 7 SW - 10
22.01.2018 02:00:00 14,0 11,0 34 18 WSW - 10
22.01.2018 01:00:00 14,0 11,2 28 15 W 1014,1 20
22.01.2018 00:00:00 14,0 11,0 34 18 W - 10
21.01.2018 23:00:00 13,0 11,0 35 19 W - 10
21.01.2018 22:00:00 13,4 10,8 42 23 WSW 1013,4 20
21.01.2018 21:00:00 14,0 11,0 41 22 W - 10
21.01.2018 20:00:00 14,0 10,0 2 1 WNW - 10
21.01.2018 19:00:00 15,2 6,0 39 21 NW 1012,3 20
21.01.2018 18:00:00 15,0 11,0 31 17 W - 10
21.01.2018 17:00:00 16,0 10,0 48 26 WNW - 10
21.01.2018 16:00:00 17,0 8,7 46 25 WNW 1009,2 20
21.01.2018 15:00:00 17,0 9,0 54 29 W - 10
21.01.2018 14:00:00 18,0 10,0 44 24 W - 10
21.01.2018 13:00:00 17,0 12,7 41 22 W 1008,4 20
21.01.2018 12:00:00 17,0 12,0 55 30 W - 10
21.01.2018 11:00:00 16,0 12,0 78 42 W - 10
21.01.2018 10:00:00 15,6 12,2 76 41 W 1008,7 20
21.01.2018 09:00:00 15,0 12,0 63 34 WSW - 10
21.01.2018 08:00:00 15,0 11,0 72 39 WSW - 10
21.01.2018 07:00:00 13,6 10,2 54 29 WSW 1010,1 15
21.01.2018 06:00:00 12,0 9,0 52 28 W - 10
21.01.2018 05:00:00 12,0 8,0 50 27 WSW - 10
21.01.2018 04:00:00 12,0 8,7 42 23 WSW 1012,2 12
21.01.2018 03:00:00 12,0 8,0 57 31 WSW - 10
21.01.2018 02:00:00 11,0 8,0 39 21 W - 10
21.01.2018 01:00:00 11,2 8,6 68 37 W 1013,2 20
21.01.2018 00:00:00 12,0 9,0 63 34 W - 10
20.01.2018 23:00:00 12,0 9,0 42 23 WSW - 10
20.01.2018 22:00:00 12,0 9,5 52 28 W 1015,2 20
20.01.2018 21:00:00 12,0 9,0 44 24 W - 10
20.01.2018 20:00:00 13,0 9,0 35 19 W - 10
20.01.2018 19:00:00 12,6 8,7 34 18 W 1016,0 20
20.01.2018 18:00:00 13,0 9,0 37 20 W - 10
20.01.2018 17:00:00 15,0 8,0 35 19 WNW - 10
20.01.2018 16:00:00 15,0 8,0 48 26 W 1014,4 20
20.01.2018 15:00:00 16,0 8,0 46 25 W - 10
20.01.2018 14:00:00 15,0 6,0 37 20 W - 10
20.01.2018 13:00:00 15,0 3,8 48 26 W 1015,6 20
20.01.2018 12:00:00 14,0 4,0 44 24 W - 10
20.01.2018 11:00:00 13,0 9,0 44 24 W - 10
20.01.2018 10:00:00 12,4 8,5 42 23 W 1015,3 15
20.01.2018 09:00:00 11,0 8,0 39 21 W - 10
20.01.2018 08:00:00 12,0 8,0 35 19 W - 10
20.01.2018 07:00:00 11,4 5,7 34 18 WSW 1014,9 18
20.01.2018 06:00:00 11,0 8,0 31 17 W - 10
20.01.2018 05:00:00 12,0 8,0 18 10 W - 10
20.01.2018 04:00:00 12,2 8,3 13 7 W 1014,7 18
20.01.2018 03:00:00 12,0 9,0 26 14 W - 10
20.01.2018 02:00:00 12,0 9,0 28 15 W - 10
20.01.2018 01:00:00 12,6 9,3 22 12 W 1014,6 10
20.01.2018 00:00:00 13,0 10,0 26 14 W - 10
19.01.2018 23:00:00 16,0 2,0 26 14 NNE - 10
19.01.2018 22:00:00 13,0 9,6 29 16 W 1014,3 18
19.01.2018 21:00:00 13,0 11,0 24 13 W - 10
19.01.2018 20:00:00 13,0 11,0 29 16 W - 10
19.01.2018 19:00:00 13,4 9,7 11 6 WNW 1014,1 18
19.01.2018 18:00:00 14,0 10,0 16 9 WNW - 10
19.01.2018 17:00:00 15,0 11,0 18 10 W - 10
19.01.2018 16:00:00 16,2 10,3 8 4 WSW 1013,4 18
19.01.2018 15:00:00 15,0 11,0 37 20 W - 10
19.01.2018 14:00:00 16,0 10,0 48 26 W - 10
19.01.2018 13:00:00 13,8 9,1 59 32 W 1014,0 18
19.01.2018 12:00:00 12,0 9,0 57 31 WSW - 10
19.01.2018 11:00:00 12,0 10,0 52 28 W - 10
19.01.2018 10:00:00 12,0 9,9 63 34 WSW 1015,2 18
19.01.2018 09:00:00 12,0 10,0 57 31 WSW - 10
19.01.2018 08:00:00 12,0 10,0 41 22 W - 10
19.01.2018 07:00:00 11,6 8,3 31 17 W 1015,9 18
19.01.2018 06:00:00 12,0 10,0 31 17 W - 10
19.01.2018 05:00:00 12,0 10,0 50 27 W - 10
19.01.2018 04:00:00 11,8 9,9 50 27 W 1016,9 18
19.01.2018 03:00:00 12,0 7,0 50 27 W - 10
19.01.2018 02:00:00 12,0 10,0 46 25 W - 10
19.01.2018 01:00:00 11,8 9,0 46 25 W 1018,7 18
19.01.2018 00:00:00 12,0 10,0 54 29 WSW - 10
18.01.2018 23:00:00 12,0 10,0 50 27 W - 10
18.01.2018 22:00:00 12,0 9,7 44 24 WSW 1019,8 18
18.01.2018 21:00:00 13,0 11,0 48 26 W - 10
18.01.2018 20:00:00 13,0 11,0 46 25 W - 10
18.01.2018 19:00:00 12,8 10,0 52 28 W 1019,7 18
18.01.2018 18:00:00 13,0 11,0 55 30 W - 10
18.01.2018 17:00:00 14,0 10,0 67 36 W - 10
18.01.2018 16:00:00 14,0 8,6 65 35 W 1019,9 18
18.01.2018 15:00:00 14,0 8,0 68 37 W - 10
18.01.2018 14:00:00 14,0 8,0 68 37 W - 10
18.01.2018 13:00:00 12,8 6,8 59 32 W 1021,7 18
18.01.2018 12:00:00 12,0 8,0 57 31 WSW - 10
18.01.2018 11:00:00 10,0 7,0 54 29 WSW - 10
18.01.2018 10:00:00 10,0 6,4 46 25 WSW 1022,9 18

tt = Température de l'air
td = dewpoint
ff = Vitesse du vent
dd = Direction du vent
ppp = reduced air pressure
vv = visibility

stations d'obs. à proximité